Location: Balmoral
(33.0667°S, 151.5833°E)
Time: 17:32:08
(UTC+00:00)

Cosmos 2242 Rocket - Pass Details

Date: 18 September 2020
Orbit: 619 x 650 km, 82.5° (Epoch: 24 October)

Event Time Altitude Azimuth Distance (km) Brightness Sun altitude
Rises 18:48:22 0° 191° (S) 2,973 7.0 -13.2°
Reaches altitude 10° 18:50:40 10° 193° (SSW) 2,050 6.2 -12.7°
Maximum altitude 18:55:09 64° 274° (W) 709 3.6 -11.8°
Drops below altitude 10° 18:59:33 10° 355° (N) 2,003 6.1 -10.8°
Sets 19:01:46 0° 358° (N) 2,897 6.9 -10.4°
